Temp_Advection
nan nan nan nan nan nan nan nan nan nan nan nan nan nan nan nan nan nan nan nan nan nan nan nan nan nan nan nan nan nan nan nan nan nan nan nan nan nan nan nan nan nan nan nan
nan -1 -1 -1 -0 -1 -1 -0 -0 0 0 0 -0 -0 -0 -0 0 0 0 0 -0 -0 0 0 -0 -0 -0 0 -0 -0 -0 0 -0 -0 0 0 0 0 -0 -0 -0 -0 0 nan
nan -1 -1 -1 -0 -0 -0 -0 -0 0 0 -0 -0 -0 -0 -0 -0 0 -0 -0 -0 0 0 -0 -0 -0 0 0 -0 0 -0 -0 -0 -0 -0 -0 -0 -0 -0 -0 -0 -0 -0 nan
nan -0 -1 -1 -1 -0 -0 0 -0 0 0 -0 0 0 -0 -1 -1 -0 0 0 0 0 0 -0 -0 -0 0 0 0 0 0 0 0 -0 0 -0 -0 -0 0 -0 -2 -0 -0 nan
nan -0 -0 -1 -1 -1 -0 -0 -0 -0 -0 -0 -0 0 0 -1 -1 -0 -0 -0 -1 0 -0 -0 0 0 -0 0 -0 0 0 -0 0 -0 0 -0 -0 0 0 -1 1 0 0 nan
nan -0 -0 -0 -0 -1 -0 -0 -0 -0 -0 -0 -0 -0 -0 -0 -0 0 -0 -0 -0 -0 -0 -0 -0 -0 0 0 -0 -0 0 0 0 -0 0 0 -0 0 -0 -0 -0 -0 -0 nan
nan -0 -0 -0 -0 -0 -0 -0 -0 -0 -0 -0 -0 -0 -1 -0 -0 -1 -1 -1 -1 -0 -1 -1 -0 1 1 0 0 -0 -0 -0 0 -0 0 -0 -1 0 -0 -0 -0 0 -0 nan
nan -0 -0 -0 -0 -0 0 0 0 -0 -0 -1 -1 -1 -0 -1 -1 -1 -1 -1 -1 -1 -0 -0 -0 -0 -0 0 0 0 -0 -0 -0 0 0 -0 -0 0 0 -0 -0 -0 1 nan
nan 0 -0 -0 -0 -0 -0 -0 0 0 0 -0 -0 -0 -0 -0 -0 -1 -0 -1 -1 -0 0 0 -0 -0 -0 0 0 -0 0 -0 0 -0 -0 -0 -0 0 -0 -0 0 0 1 nan
nan -0 0 0 0 -0 -0 -0 0 0 -0 -1 0 0 -0 -0 -0 -0 -1 -1 -1 -1 0 -0 -0 -0 -0 0 -0 -0 -0 0 -0 -0 0 -0 -0 -0 0 0 0 0 1 nan
nan 0 -0 -0 0 0 -0 -0 0 -0 -0 -0 -0 0 -0 0 0 -0 -1 -0 -0 -0 -0 0 0 -0 -0 -0 0 -0 -0 -0 0 0 0 2 -0 0 1 -0 -0 0 1 nan
nan 0 0 -0 -0 -0 0 -0 -0 -0 -0 -1 -1 0 0 -0 0 0 -0 -0 -0 -0 -0 -0 -0 -0 -0 -0 1 -0 0 0 0 0 0 -0 -0 -0 -1 -0 0 0 1 nan
nan 0 0 -0 0 -0 -0 -0 0 0 -0 -1 -1 -0 0 0 -0 1 0 -0 -0 0 -0 -0 -0 -0 -0 -0 -0 1 -1 -2 -0 0 -0 -0 -0 -0 0 1 0 0 1 nan
nan 0 0 -0 -0 0 -0 -0 0 0 0 -0 -1 -1 -0 -0 0 0 0 0 1 0 -0 -0 -0 -0 0 -0 -0 -1 -1 -1 -1 -0 -0 -0 -1 0 1 1 1 1 1 nan
nan -0 0 -0 -0 -0 -0 -0 0 0 0 -0 -1 -2 -0 -0 0 -0 0 1 1 -0 -0 -0 -0 -0 -0 -0 -0 -0 -0 -0 -0 -0 -0 -0 -0 0 1 0 0 2 1 nan
nan 0 0 -0 -0 -0 -0 0 -0 -0 0 0 -0 -1 -0 -0 -0 -0 0 1 0 -0 -0 -0 0 -1 -0 -0 -0 -0 -0 -0 -0 -0 -1 -0 -0 -0 0 1 0 1 2 nan
nan 0 0 -0 0 0 -0 -0 0 0 -0 0 -0 -0 -0 -0 -0 -0 0 0 -0 -0 0 0 -0 -0 -0 -0 -0 -0 -0 -0 -0 0 -0 -1 -0 -0 0 0 0 0 -0 nan
nan -0 -0 0 0 0 0 0 0 0 0 0 -0 -0 -1 -0 -0 -0 0 -0 -1 -1 -1 -0 -0 -0 -0 -0 -0 -0 -0 -0 -0 -0 -0 -0 0 0 0 0 -0 -0 -0 nan
nan 0 0 -0 -0 -0 0 0 0 0 0 0 0 -0 -0 -1 -0 -0 -0 -0 -0 -0 -0 -0 -0 -0 -0 -0 -0 -1 -1 -0 -0 0 -0 -0 -1 -0 -0 -0 -0 -0 0 nan
nan -0 -0 -0 -0 0 0 -0 -0 -0 -0 -0 -0 0 0 -1 -0 -0 -0 -0 -0 -0 0 -0 -0 -0 -0 -1 -1 -0 -0 -0 -0 -1 -1 -0 -0 -0 -0 -0 0 0 0 nan
nan -0 -0 -0 0 0 -0 -0 -0 -0 -0 -0 0 -0 0 -0 0 -0 -0 -0 -0 0 0 -0 -0 -0 -0 -1 -1 -0 -0 -0 -0 -0 -0 -0 -0 -0 -0 -0 -0 -0 -0 nan
nan -0 -0 -0 -0 -1 -1 -0 -0 -0 -0 -0 -0 -0 -0 -0 -0 -0 -0 -0 -0 0 -0 -0 -0 -0 -1 -1 -0 -1 -0 -0 -0 -0 -0 -0 -0 -0 -0 -0 -0 -0 -0 nan
nan -0 -0 -1 -1 -1 0 0 -0 -0 0 -0 -0 -0 -0 -0 -0 -0 -0 0 0 -0 -0 -0 -0 -1 -1 -1 -1 -0 -0 -0 -0 -0 -0 -0 -0 -0 -0 -0 -0 -0 -0 nan
nan -1 -1 -0 -0 0 0 0 -0 -0 -0 -0 -0 -0 -0 -1 -0 -0 0 -0 -0 -0 -0 -0 -0 -1 -1 -0 -1 -0 -0 -0 -0 -0 -0 -0 -0 -0 -0 -0 -0 -0 -0 nan
nan -1 -0 0 0 -0 -0 -0 -0 -0 -0 -0 0 -0 -0 -0 0 0 -0 -0 -0 -0 -0 -0 -0 -0 -0 -0 -0 -0 -0 -0 -0 -0 -0 -0 -0 -0 -0 -0 -0 -0 -0 nan
nan -1 -0 -0 -0 -0 -0 -0 -0 0 0 -0 -0 -0 -0 -0 0 0 -0 0 0 -0 -0 -0 -0 -0 -0 -0 -0 -0 -0 -0 -0 -0 -0 -0 -0 -0 -0 -0 -0 -0 -0 nan
nan nan nan nan nan nan nan nan nan nan nan nan nan nan nan nan nan nan nan nan nan nan nan nan nan nan nan nan nan nan nan nan nan nan nan nan nan nan nan nan nan nan nan nan
Wind_Speed
22 25 23 21 21 20 11 3 1 3 9 4 3 4 6 8 7 6 6 4 8 7 8 7 7 10 8 11 12 11 9 5 4 8 1 4 4 6 6 4 6 3 4 6
24 21 21 20 17 17 16 8 5 5 11 3 4 5 5 6 4 6 5 7 7 4 5 4 9 7 7 15 9 11 8 4 1 5 2 3 5 6 5 3 2 6 5 7
22 20 19 18 16 13 11 5 2 5 14 15 3 3 5 5 6 6 6 5 5 4 6 7 5 5 3 6 6 7 8 5 8 10 6 5 6 8 13 8 4 4 6 6
17 19 20 20 17 13 7 5 5 6 3 5 6 2 5 13 9 7 5 4 6 6 5 3 8 6 2 2 6 5 5 7 6 6 5 5 7 7 15 11 15 8 8 9
16 17 18 18 19 13 4 5 5 7 5 8 7 10 8 12 17 4 8 5 12 11 9 11 5 2 4 7 3 7 3 4 6 5 8 9 5 7 12 18 12 5 5 8
17 18 17 17 15 16 6 8 10 6 8 3 5 7 13 14 16 20 19 9 10 9 10 15 18 20 18 7 8 8 7 5 4 5 3 5 7 15 11 7 7 15 13 22
15 15 15 15 12 10 10 10 11 5 6 5 4 6 13 12 8 12 23 29 12 10 23 25 19 19 16 11 9 10 7 5 4 3 3 5 7 3 13 18 7 11 3 6
17 15 15 14 14 12 14 12 8 5 5 9 11 10 8 18 18 15 18 28 29 28 22 7 5 3 3 6 7 12 5 5 4 5 6 4 5 5 8 9 11 14 17 6
17 15 14 15 16 13 14 14 13 11 4 5 6 9 11 9 7 8 6 10 18 17 8 4 6 7 4 4 2 3 4 2 6 3 5 9 8 5 9 5 4 7 14 11
16 16 15 16 16 13 15 14 16 15 7 18 10 4 4 7 2 3 9 11 11 8 5 7 8 9 3 8 5 4 3 2 14 12 7 6 3 2 7 6 5 2 17 23
17 16 14 14 16 12 13 13 15 14 9 22 22 24 11 7 4 2 12 11 2 3 5 5 4 4 9 11 10 7 10 8 5 4 5 11 3 0 7 0 3 2 13 18
16 14 13 13 16 13 11 14 12 14 12 14 21 26 27 28 31 21 7 7 8 5 3 4 5 2 3 16 17 2 5 4 4 7 4 3 4 4 5 3 4 5 16 21
14 12 10 11 11 12 13 15 13 12 9 20 11 17 18 16 17 17 9 6 6 6 11 4 3 4 7 3 7 9 3 11 2 4 2 4 7 9 8 8 13 14 20 25
13 10 10 12 11 12 13 14 14 12 6 4 11 12 12 12 17 19 22 26 23 16 15 6 3 2 3 2 2 6 6 11 6 3 3 9 14 14 16 20 21 24 23 24
11 8 12 10 12 13 15 18 16 14 11 4 12 25 10 7 14 13 15 19 19 12 4 4 3 2 4 4 3 4 11 5 4 3 9 9 9 12 17 25 25 26 30 32
8 11 10 11 13 15 14 3 2 4 3 5 3 8 13 10 5 8 14 16 16 15 4 4 1 6 4 3 3 12 20 17 15 5 23 27 33 31 27 34 31 28 31 30
11 10 12 13 12 12 7 4 9 7 7 3 4 5 5 11 11 10 10 10 2 4 4 2 4 6 7 3 3 14 18 26 29 13 21 31 23 23 29 33 33 32 29 30
10 13 15 12 8 5 4 4 4 5 5 2 1 3 7 12 6 6 4 6 10 16 9 7 5 6 5 4 9 23 20 23 32 31 31 27 27 29 27 26 25 26 22 20
13 14 9 3 2 2 3 9 12 10 6 0 2 2 3 13 6 6 5 4 3 8 5 5 6 4 6 7 16 23 27 20 19 25 26 26 27 25 22 21 19 18 15 12
12 7 2 1 6 7 3 2 3 2 4 4 2 7 3 8 5 4 6 3 2 2 3 5 4 6 17 20 22 22 22 22 21 23 23 21 21 18 17 15 12 10 8 7
6 4 3 6 5 4 3 4 4 5 4 7 6 6 5 5 2 2 4 2 1 3 3 3 3 3 13 19 20 20 20 18 18 16 14 13 12 11 10 9 7 6 5 5
6 4 4 6 7 6 5 3 4 4 1 8 7 8 8 6 5 3 5 2 3 4 2 3 3 4 17 18 17 18 18 15 14 14 13 11 10 9 7 6 6 5 5 5
5 4 4 6 8 7 5 6 4 4 6 8 13 5 5 5 5 2 3 5 4 3 3 3 3 11 15 16 15 14 15 14 12 12 11 10 9 8 8 7 6 6 6 6
6 6 7 4 5 4 3 3 4 8 13 17 17 6 5 4 4 2 4 3 4 3 3 3 3 12 14 15 14 13 14 14 13 13 12 11 11 10 8 7 7 7 6 6
7 7 5 3 2 9 10 12 10 12 13 12 6 2 4 4 4 3 4 5 5 4 3 2 8 12 16 19 17 15 13 14 15 14 13 11 10 10 8 7 6 7 7 8
6 9 4 12 5 9 14 14 12 18 14 3 3 2 4 5 3 6 5 4 4 2 3 10 9 14 17 19 17 14 13 14 14 13 13 12 11 12 10 9 9 9 9 10
5 5 15 10 4 8 14 16 21 19 6 2 4 5 2 2 4 4 4 3 2 7 8 8 10 14 17 16 13 13 14 13 13 11 10 10 11 10 9 11 11 9 9 10
Wind_Direction
325 328 330 335 334 343 329 336 324 310 188 191 214 213 207 258 281 244 252 192 211 211 200 208 219 220 225 193 151 169 196 159 197 205 308 174 175 192 162 174 231 219 160 271
320 323 331 336 337 335 340 310 247 246 199 229 243 282 275 243 242 213 220 234 209 183 221 218 197 214 236 183 165 169 175 203 101 327 348 338 199 198 198 144 90 214 176 248
326 335 332 335 331 329 316 288 289 210 196 221 265 300 270 266 297 266 237 247 209 187 225 232 259 231 236 204 207 167 157 183 185 218 199 143 188 197 198 170 162 193 227 260
328 329 332 332 330 334 304 240 247 241 225 231 188 270 300 301 289 237 245 277 233 217 240 240 233 227 228 214 207 187 174 224 202 239 230 187 201 191 185 195 216 186 222 212
324 323 327 334 338 340 287 288 329 322 280 297 256 256 235 261 292 330 297 246 283 277 236 239 296 234 192 210 135 175 186 246 183 262 220 203 227 211 198 215 223 262 259 253
313 309 315 324 335 346 340 322 275 297 265 270 271 246 263 270 266 260 284 332 318 297 269 269 276 269 257 237 170 192 165 181 151 254 190 146 277 216 191 185 197 212 212 239
315 318 311 310 319 322 318 318 318 291 274 245 248 332 312 292 299 291 261 272 281 298 327 320 293 268 252 224 207 173 169 175 174 206 125 209 247 198 206 206 198 212 211 182
303 309 318 323 318 302 296 291 275 254 275 309 305 323 331 313 302 278 270 277 269 271 295 306 292 298 292 230 219 203 192 163 195 177 208 293 276 198 160 167 242 205 214 141
299 302 314 313 303 311 296 286 274 248 249 235 232 297 287 310 337 324 298 328 296 279 254 238 230 232 233 246 285 4 169 256 201 144 208 215 227 194 161 130 270 205 185 162
296 294 297 310 317 304 308 301 278 268 235 268 265 215 286 278 327 264 297 335 320 321 210 222 231 234 217 240 208 189 151 196 213 219 236 280 283 323 152 157 241 184 182 166
283 293 300 312 304 312 298 304 310 280 262 267 272 281 252 229 243 206 308 330 38 287 241 201 194 240 230 230 238 182 176 175 198 210 218 253 36 166 180 313 21 189 160 160
281 285 297 293 299 306 303 301 305 308 303 284 291 279 269 269 272 266 248 273 323 289 305 8 331 320 247 229 244 174 224 207 194 193 202 52 25 14 322 246 132 113 150 158
279 280 292 304 303 314 302 295 301 292 291 305 285 307 294 286 265 262 217 244 243 263 350 312 293 283 355 271 250 227 52 17 249 142 95 54 52 57 77 121 117 126 139 143
276 267 294 301 302 303 303 307 300 279 257 258 284 294 291 281 268 265 265 266 259 273 297 261 253 265 193 302 18 25 342 313 343 72 88 85 51 78 104 107 117 119 121 128
278 286 297 308 306 305 301 305 289 269 227 246 283 300 310 319 297 279 269 259 244 252 233 235 248 277 337 63 62 32 336 334 333 3 320 72 71 92 112 109 102 116 126 119
304 303 306 308 312 309 318 298 346 14 229 324 319 305 304 351 334 298 275 262 246 230 247 217 186 37 21 59 60 352 354 16 55 67 67 81 85 82 90 102 102 109 116 120
313 318 315 310 306 292 276 276 305 323 329 277 312 307 317 335 339 319 289 279 17 287 221 151 34 37 62 42 39 339 10 45 53 64 85 61 68 80 88 90 97 99 96 99
321 319 318 313 310 297 272 223 257 295 321 255 282 287 320 1 320 317 326 62 33 22 17 21 19 36 59 56 357 34 34 47 58 64 74 80 86 86 84 89 92 91 87 94
323 321 324 337 39 24 309 286 282 279 227 273 1 3 289 341 327 299 10 96 73 50 43 21 36 34 49 6 29 35 37 46 54 67 69 70 67 69 70 74 73 80 86 93
326 331 14 48 334 332 343 31 338 39 50 27 55 343 307 325 320 304 346 101 104 85 51 60 58 69 51 47 50 48 47 49 55 54 42 49 53 54 57 61 68 73 78 84
356 15 23 355 8 25 38 31 24 9 30 7 347 335 325 312 318 292 329 45 59 72 17 81 34 55 34 43 43 38 42 43 46 53 54 51 53 52 51 50 51 49 42 38
20 12 19 19 26 27 64 353 9 41 344 348 343 319 311 316 329 312 350 60 48 83 70 67 66 37 32 27 28 27 30 34 37 39 42 39 39 35 33 23 11 5 353 339
24 28 40 17 4 34 48 354 327 338 0 347 328 324 323 320 355 337 29 53 62 92 50 70 41 25 18 17 18 14 16 24 30 29 27 21 19 13 9 359 347 338 334 330
45 34 21 81 360 28 7 316 290 303 324 326 326 310 3 356 15 337 61 15 55 64 65 68 22 22 10 7 5 11 9 16 18 15 9 8 8 10 7 359 350 351 352 345
54 35 31 51 46 3 342 341 337 334 329 338 334 332 6 354 52 21 34 36 52 38 54 17 20 8 6 5 4 5 10 9 7 8 9 11 10 8 7 7 360 345 337 332
57 40 7 350 346 337 353 348 339 353 344 359 23 57 47 30 66 41 12 69 35 32 7 354 2 1 1 359 1 4 2 360 1 4 7 6 3 2 360 351 345 342 333 326
46 22 24 20 352 331 341 353 349 5 11 34 54 49 347 348 43 35 23 40 13 350 347 1 0 352 352 353 358 0 0 360 358 2 6 3 356 348 346 352 350 347 335 326
Height
1512 1509 1505 1501 1497 1494 1492 1489 1489 1488 1488 1493 1489 1488 1480 1473 1468 1466 1465 1463 1465 1466 1464 1469 1471 1463 1454 1446 1449 1461 1459 1468 1485 1469 1467 1467 1471 1471 1474 1486 1478 1491 1488 1472
1509 1506 1503 1500 1497 1494 1491 1488 1485 1484 1486 1489 1484 1478 1473 1469 1467 1464 1463 1461 1457 1456 1458 1462 1456 1451 1442 1443 1446 1449 1453 1465 1488 1475 1472 1470 1468 1468 1468 1471 1481 1483 1474 1457
1506 1503 1501 1498 1496 1493 1491 1488 1485 1481 1479 1478 1480 1477 1471 1469 1463 1461 1458 1456 1454 1454 1453 1451 1447 1446 1441 1443 1443 1443 1444 1452 1451 1450 1445 1452 1462 1458 1457 1462 1484 1473 1473 1456
1505 1502 1498 1496 1493 1490 1490 1486 1480 1477 1475 1472 1472 1479 1475 1471 1465 1459 1457 1453 1452 1451 1452 1447 1445 1441 1441 1441 1441 1443 1445 1448 1447 1441 1437 1442 1440 1441 1446 1458 1446 1455 1446 1455
1503 1500 1497 1494 1491 1488 1487 1485 1482 1476 1473 1470 1469 1467 1468 1468 1466 1462 1457 1455 1451 1446 1446 1442 1439 1437 1440 1434 1440 1442 1442 1442 1443 1436 1435 1438 1435 1435 1440 1437 1437 1446 1443 1443
1500 1497 1495 1492 1490 1487 1484 1483 1481 1478 1469 1467 1468 1461 1458 1456 1457 1458 1456 1454 1451 1447 1442 1438 1436 1434 1432 1429 1433 1438 1441 1441 1441 1444 1431 1437 1440 1423 1432 1433 1431 1425 1437 1413
1495 1493 1492 1490 1488 1486 1484 1483 1482 1480 1470 1467 1464 1461 1460 1457 1457 1452 1449 1448 1450 1443 1439 1434 1430 1427 1423 1422 1423 1424 1433 1435 1435 1441 1436 1449 1405 1403 1404 1411 1414 1418 1415 1413
1493 1491 1488 1486 1484 1483 1480 1481 1480 1478 1471 1468 1465 1462 1462 1457 1454 1450 1445 1440 1439 1442 1443 1438 1430 1425 1422 1417 1416 1419 1418 1424 1430 1432 1437 1418 1404 1404 1406 1409 1404 1403 1404 1412
1488 1486 1484 1482 1481 1479 1477 1477 1475 1474 1471 1465 1464 1464 1462 1458 1452 1447 1439 1437 1435 1435 1436 1439 1429 1419 1417 1416 1417 1416 1417 1417 1417 1432 1424 1418 1393 1390 1391 1397 1406 1390 1396 1405
1484 1482 1481 1479 1476 1475 1474 1472 1471 1469 1465 1461 1461 1460 1459 1459 1458 1456 1447 1442 1434 1429 1428 1424 1421 1417 1408 1409 1414 1420 1420 1422 1413 1409 1411 1406 1393 1392 1393 1404 1399 1390 1391 1396
1479 1477 1476 1475 1473 1471 1470 1468 1466 1464 1459 1455 1456 1456 1455 1454 1454 1456 1448 1444 1436 1430 1419 1414 1411 1408 1399 1402 1399 1407 1407 1414 1412 1414 1411 1409 1399 1396 1396 1395 1393 1392 1393 1398
1473 1473 1471 1470 1468 1467 1465 1463 1462 1460 1458 1456 1453 1449 1448 1448 1447 1450 1449 1446 1444 1439 1431 1425 1416 1404 1399 1391 1393 1397 1400 1394 1396 1396 1393 1400 1399 1399 1397 1395 1395 1395 1396 1400
1468 1467 1467 1466 1464 1463 1462 1459 1459 1458 1455 1449 1444 1442 1442 1441 1440 1442 1444 1443 1441 1439 1438 1436 1428 1418 1408 1395 1391 1383 1396 1401 1392 1394 1402 1402 1402 1401 1399 1398 1397 1399 1401 1405
1463 1463 1463 1462 1461 1459 1458 1456 1454 1454 1454 1450 1441 1438 1437 1437 1436 1436 1436 1435 1436 1436 1437 1435 1428 1423 1415 1408 1413 1418 1423 1413 1405 1404 1405 1405 1407 1406 1405 1403 1403 1405 1408 1412
1458 1459 1459 1458 1457 1455 1453 1450 1448 1448 1451 1446 1438 1433 1431 1431 1430 1430 1430 1430 1431 1431 1431 1429 1423 1416 1415 1415 1421 1431 1432 1426 1417 1410 1409 1406 1411 1411 1410 1407 1412 1414 1413 1418
1457 1456 1455 1454 1453 1451 1449 1448 1447 1446 1444 1444 1440 1433 1429 1427 1426 1425 1425 1424 1425 1426 1423 1423 1417 1421 1421 1427 1436 1443 1436 1428 1416 1420 1416 1414 1411 1415 1417 1411 1416 1422 1421 1424
1455 1453 1452 1450 1449 1448 1448 1448 1446 1445 1444 1443 1440 1434 1430 1427 1425 1424 1421 1420 1418 1418 1418 1419 1424 1426 1428 1440 1447 1446 1438 1430 1425 1424 1417 1419 1423 1422 1425 1421 1423 1427 1433 1432
1453 1451 1448 1446 1445 1444 1445 1444 1444 1444 1444 1443 1443 1436 1432 1430 1426 1423 1421 1420 1424 1425 1426 1429 1429 1433 1438 1451 1454 1446 1441 1436 1433 1432 1431 1434 1432 1428 1431 1432 1434 1436 1442 1442
1450 1448 1445 1445 1445 1445 1445 1443 1442 1441 1445 1442 1442 1443 1443 1432 1429 1425 1423 1425 1432 1438 1440 1439 1441 1446 1455 1461 1456 1451 1448 1445 1447 1444 1442 1439 1436 1439 1441 1440 1444 1446 1449 1450
1447 1446 1445 1445 1445 1444 1443 1442 1442 1441 1441 1442 1444 1443 1443 1438 1432 1428 1426 1425 1431 1441 1448 1449 1453 1461 1467 1465 1462 1459 1456 1454 1452 1448 1448 1447 1446 1448 1447 1449 1451 1452 1453 1453
1447 1446 1446 1446 1444 1444 1443 1444 1444 1445 1447 1447 1447 1445 1443 1438 1436 1434 1429 1428 1433 1443 1452 1455 1462 1469 1471 1470 1467 1465 1462 1460 1458 1456 1455 1454 1454 1453 1453 1454 1454 1453 1453 1452
1449 1448 1447 1447 1447 1446 1448 1453 1451 1453 1456 1451 1450 1447 1444 1440 1437 1435 1433 1433 1438 1449 1453 1460 1469 1478 1476 1474 1471 1468 1466 1464 1462 1460 1459 1458 1456 1455 1455 1454 1454 1453 1452 1452
1450 1450 1450 1452 1456 1462 1467 1468 1464 1459 1456 1454 1451 1448 1445 1442 1441 1439 1438 1442 1447 1451 1462 1473 1482 1482 1479 1477 1474 1471 1469 1466 1464 1462 1460 1459 1457 1456 1455 1454 1453 1453 1452 1451
1453 1455 1463 1468 1473 1472 1471 1470 1467 1462 1458 1455 1452 1449 1448 1446 1444 1445 1447 1452 1453 1465 1474 1482 1485 1484 1482 1479 1476 1473 1470 1467 1465 1463 1461 1459 1458 1456 1455 1454 1452 1451 1450 1449
1460 1465 1475 1476 1477 1476 1473 1469 1465 1461 1457 1454 1452 1451 1450 1451 1453 1455 1456 1464 1471 1476 1484 1486 1487 1485 1482 1479 1475 1472 1470 1467 1465 1463 1461 1459 1458 1456 1454 1453 1451 1450 1449 1448
1471 1478 1480 1480 1477 1475 1471 1467 1463 1459 1456 1454 1454 1456 1461 1466 1468 1471 1479 1487 1488 1489 1491 1490 1487 1485 1482 1478 1475 1472 1470 1468 1465 1463 1460 1458 1456 1454 1453 1452 1450 1448 1447 1445
1482 1487 1486 1484 1482 1479 1475 1470 1465 1460 1457 1459 1458 1470 1474 1472 1481 1487 1487 1493 1495 1494 1492 1490 1488 1485 1482 1479 1476 1473 1470 1468 1465 1463 1461 1459 1457 1455 1453 1450 1449 1447 1445 1444